Location: Aalsum
(53.3404°N, 6.0062°E)
Time: 02:19:17
(UTC+00:00)

Cosmos 1980 Rocket - Pass Details

Date: 28 January 2023
Orbit: 828 x 851 km, 71.0° (Epoch: 20 March)

Event Time Altitude Azimuth Distance (km) Brightness Sun altitude
Rises 20:19:12 0° 264° (W) 3,398 6.1 -36.5°
Reaches altitude 10° 20:22:13 10° 279° (W) 2,470 5.3 -36.9°
Maximum altitude 20:26:33 22° 330° (NNW) 1,779 4.2 -37.5°
Enters shadow 20:27:08 22° 338° (NNW) 1,795 4.2 -37.6°
